Location: *
(43.9900°N, 3.4811°E)
Time: 12:02:51
(UTC+00:00)

Cosmos 1975 Rocket - Pass Details

Date: 25 August 2019
Orbit: 605 x 633 km, 82.5° (Epoch: 15 September)

Event Time Altitude Azimuth Distance (km) Brightness Sun altitude
Rises 21:20:38 0° 343° (NNW) 2,917 7.6 -26.0°
Reaches altitude 10° 21:22:59 10° 335° (NNW) 2,009 6.6 -26.2°
Maximum altitude 21:27:04 37° 269° (W) 982 4.3 -26.7°
Enters shadow 21:27:38 35° 251° (WSW) 1,011 4.2 -26.8°
